| time (UTC) | temp C | wind direction | speed KPH | gust KPH | rain 1hr cm | rain 24hr cm | rain mn cm | humidity % | barometer mb |
| 20260509200024 | 14 | 87 | 0.0 | 3.2 | 0.00 | 0.28 | 0.28 | 85 | 1010.3 |
| 20260509194503 | 14 | 177 | 0.0 | 3.2 | 0.00 | 0.28 | 0.28 | 85 | 1010.3 |
| 20260509193018 | 13 | 15 | 0.0 | 3.2 | 0.03 | 0.28 | 0.28 | 86 | 1010.5 |
| 20260509191518 | 13 | 15 | 0.0 | 3.2 | 0.05 | 0.28 | 0.28 | 87 | 1010.5 |
| 20260509190003 | 13 | 69 | 0.0 | 4.8 | 0.08 | 0.28 | 0.28 | 89 | 1010.7 |
| 20260509184512 | 12 | 189 | 0.0 | 3.2 | 0.08 | 0.28 | 0.28 | 89 | 1011.0 |
| 20260509183006 | 12 | 167 | 0.0 | 4.8 | 0.05 | 0.25 | 0.25 | 89 | 1011.5 |
| 20260509181511 | 12 | 167 | 0.0 | 0.0 | 0.05 | 0.23 | 0.23 | 90 | 1011.4 |
| 20260509180020 | 12 | 167 | 0.0 | 4.8 | 0.03 | 0.20 | 0.20 | 87 | 1011.4 |
| 20260509174502 | 12 | 167 | 0.0 | 3.2 | 0.05 | 0.20 | 0.20 | 88 | 1011.5 |
| 20260509173006 | 12 | 202 | 1.6 | 3.2 | 0.13 | 0.20 | 0.20 | 88 | 1011.6 |
| 20260509171509 | 12 | 202 | 0.0 | 3.2 | 0.15 | 0.18 | 0.18 | 88 | 1011.5 |
| 20260509170017 | 12 | 202 | 0.0 | 3.2 | 0.18 | 0.18 | 0.18 | 88 | 1011.3 |
| 20260509164519 | 12 | 202 | 0.0 | 3.2 | 0.15 | 0.15 | 0.15 | 86 | 1011.4 |
| 20260509163005 | 13 | 202 | 0.0 | 3.2 | 0.08 | 0.08 | 0.08 | 84 | 1011.4 |
| 20260509161508 | 13 | 202 | 1.6 | 4.8 | 0.03 | 0.03 | 0.03 | 82 | 1011.7 |
| 20260509160012 | 13 | 209 | 0.0 | 6.4 | 0.00 | 0.00 | 0.00 | 78 | 1011.8 |
| 20260509154518 | 14 | 211 | 3.2 | 6.4 | 0.00 | 0.00 | 0.00 | 72 | 1011.8 |
| 20260509153026 | 15 | 197 | 6.4 | 11.3 | 0.00 | 0.00 | 0.00 | 66 | 1011.9 |
| 20260509151508 | 15 | 175 | 4.8 | 9.7 | 0.00 | 0.00 | 0.00 | 67 | 1012.0 |
| 20260509150010 | 15 | 223 | 4.8 | 8.0 | 0.00 | 0.00 | 0.00 | 71 | 1011.8 |
| 20260509144514 | 15 | 204 | 3.2 | 9.7 | 0.00 | 0.00 | 0.00 | 72 | 1011.7 |
| 20260509143019 | 15 | 189 | 3.2 | 8.0 | 0.00 | 0.00 | 0.00 | 71 | 1011.7 |
| 20260509141526 | 15 | 205 | 3.2 | 4.8 | 0.00 | 0.00 | 0.00 | 71 | 1011.1 |
| 20260509140011 | 15 | 180 | 1.6 | 3.2 | 0.00 | 0.00 | 0.00 | 73 | 1011.2 |
| 20260509134512 | 15 | 196 | 0.0 | 3.2 | 0.00 | 0.00 | 0.00 | 74 | 1011.2 |
| 20260509133020 | 14 | 192 | 0.0 | 3.2 | 0.00 | 0.00 | 0.00 | 75 | 1011.3 |
| 20260509131522 | 13 | 138 | 1.6 | 3.2 | 0.00 | 0.00 | 0.00 | 75 | 1011.2 |
| 20260509130036 | 13 | 38 | 0.0 | 3.2 | 0.00 | 0.00 | 0.00 | 76 | 1011.3 |
| 20260509124511 | 13 | 33 | 0.0 | 3.2 | 0.00 | 0.00 | 0.00 | 77 | 1011.2 |
| 20260509123018 | 13 | 180 | 0.0 | 3.2 | 0.00 | 0.00 | 0.00 | 77 | 1011.2 |
| 20260509121525 | 12 | 20 | 0.0 | 3.2 | 0.00 | 0.00 | 0.00 | 78 | 1011.3 |
| 20260509120024 | 12 | 20 | 0.0 | 3.2 | 0.00 | 0.00 | 0.00 | 78 | 1011.3 |
| 20260509114528 | 12 | 20 | 0.0 | 3.2 | 0.00 | 0.00 | 0.00 | 79 | 1011.2 |
| 20260509113012 | 11 | 20 | 0.0 | 3.2 | 0.00 | 0.00 | 0.00 | 84 | 1011.2 |
| 20260509111520 | 11 | 20 | 0.0 | 3.2 | 0.00 | 0.00 | 0.00 | 87 | 1011.0 |
| 20260509110024 | 10 | 20 | 0.0 | 3.2 | 0.00 | 0.00 | 0.00 | 86 | 1011.0 |
| 20260509104509 | 10 | 20 | 0.0 | 3.2 | 0.00 | 0.00 | 0.00 | 87 | 1010.7 |
| 20260509103011 | 10 | 20 | 0.0 | 3.2 | 0.00 | 0.00 | 0.00 | 86 | 1010.9 |
| 20260509101523 | 10 | 20 | 0.0 | 3.2 | 0.00 | 0.00 | 0.00 | 85 | 1010.8 |
| 20260509100004 | 10 | 88 | 1.6 | 3.2 | 0.00 | 0.00 | 0.00 | 85 | 1010.7 |
| 20260509094503 | 10 | 135 | 0.0 | 3.2 | 0.00 | 0.00 | 0.00 | 86 | 1010.8 |
| 20260509093008 | 10 | 146 | 0.0 | 3.2 | 0.00 | 0.00 | 0.00 | 86 | 1010.8 |
| 20260509091514 | 10 | 146 | 0.0 | 3.2 | 0.00 | 0.00 | 0.00 | 86 | 1011.1 |
| 20260509090032 | 10 | 148 | 0.0 | 3.2 | 0.00 | 0.00 | 0.00 | 87 | 1011.2 |
| 20260509084504 | 10 | 148 | 0.0 | 3.2 | 0.00 | 0.00 | 0.00 | 86 | 1011.3 |
| 20260509083020 | 9 | 148 | 0.0 | 3.2 | 0.00 | 0.00 | 0.00 | 87 | 1011.3 |
| 20260509081512 | 10 | 148 | 0.0 | 3.2 | 0.00 | 0.00 | 0.00 | 86 | 1011.6 |
| 20260509080020 | 10 | 148 | 0.0 | 0.0 | 0.00 | 0.00 | 0.00 | 85 | 1011.6 |
| 20260509074522 | 10 | 148 | 0.0 | 0.0 | 0.00 | 0.00 | 0.00 | 85 | 1011.6 |
| 20260509073007 | 10 | 148 | 0.0 | 3.2 | 0.00 | 0.00 | 0.00 | 84 | 1011.6 |
| 20260509071511 | 10 | 111 | 0.0 | 0.0 | 0.00 | 0.00 | 0.00 | 83 | 1011.4 |
| 20260509070015 | 10 | 111 | 0.0 | 1.6 | 0.00 | 0.00 | 0.00 | 83 | 1011.4 |
| 20260509064520 | 10 | 97 | 0.0 | 3.2 | 0.00 | 0.00 | 0.00 | 83 | 1011.3 |
| 20260509063026 | 10 | 115 | 0.0 | 3.2 | 0.00 | 0.00 | 0.00 | 83 | 1011.4 |
| 20260509061508 | 10 | 114 | 0.0 | 0.0 | 0.00 | 0.00 | 0.00 | 82 | 1011.6 |
| 20260509060012 | 10 | 114 | 0.0 | 3.2 | 0.00 | 0.00 | 0.00 | 82 | 1011.9 |
| 20260509054516 | 10 | 109 | 0.0 | 0.0 | 0.00 | 0.00 | 0.00 | 81 | 1012.2 |
| 20260509053031 | 11 | 104 | 0.0 | 0.0 | 0.00 | 0.00 | 0.00 | 79 | 1012.3 |
| 20260509051526 | 11 | 104 | 0.0 | 0.0 | 0.00 | 0.00 | 0.00 | 78 | 1012.3 |
| 20260509050012 | 11 | 104 | 0.0 | 0.0 | 0.00 | 0.00 | 0.00 | 78 | 1012.3 |
| 20260509044518 | 11 | 104 | 0.0 | 3.2 | 0.00 | 0.00 | 0.00 | 77 | 1012.3 |
| 20260509043019 | 12 | 105 | 0.0 | 3.2 | 0.00 | 0.00 | 0.00 | 77 | 1012.1 |
| 20260509041503 | 12 | 33 | 1.6 | 3.2 | 0.00 | 0.00 | 0.00 | 76 | 1012.6 |
| 20260509040014 | 12 | 160 | 0.0 | 0.0 | 0.00 | 0.00 | 0.00 | 74 | 1013.0 |
| 20260509034513 | 12 | 160 | 0.0 | 3.2 | 0.00 | 0.00 | 0.00 | 75 | 1013.1 |
| 20260509033015 | 11 | 160 | 0.0 | 3.2 | 0.00 | 0.00 | 0.00 | 77 | 1013.0 |
| 20260509031532 | 11 | 160 | 0.0 | 0.0 | 0.00 | 0.00 | 0.00 | 76 | 1012.4 |
| 20260509030005 | 12 | 160 | 0.0 | 3.2 | 0.00 | 0.00 | 0.00 | 73 | 1012.6 |
| 20260509024510 | 12 | 160 | 0.0 | 3.2 | 0.00 | 0.00 | 0.00 | 72 | 1012.4 |
| 20260509023016 | 12 | 160 | 0.0 | 3.2 | 0.00 | 0.00 | 0.00 | 71 | 1012.5 |
| 20260509021533 | 12 | 160 | 0.0 | 0.0 | 0.00 | 0.00 | 0.00 | 69 | 1012.6 |
| 20260509020023 | 12 | 160 | 0.0 | 0.0 | 0.00 | 0.00 | 0.00 | 65 | 1012.5 |
| 20260509014505 | 13 | 160 | 0.0 | 0.0 | 0.00 | 0.00 | 0.00 | 63 | 1012.3 |
| 20260509013012 | 13 | 160 | 0.0 | 0.0 | 0.00 | 0.00 | 0.00 | 60 | 1012.3 |
| 20260509011514 | 13 | 160 | 0.0 | 0.0 | 0.00 | 0.00 | 0.00 | 59 | 1012.1 |
| 20260509010023 | 14 | 160 | 0.0 | 0.0 | 0.00 | 0.00 | 0.00 | 56 | 1011.9 |
| 20260509004526 | 15 | 160 | 0.0 | 3.2 | 0.00 | 0.00 | 0.00 | 54 | 1011.6 |
| 20260509003011 | 15 | 160 | 0.0 | 3.2 | 0.00 | 0.00 | 0.00 | 52 | 1011.5 |
| 20260509001516 | 16 | 160 | 0.0 | 3.2 | 0.00 | 0.00 | 0.00 | 51 | 1011.2 |
| 20260509000018 | 16 | 146 | 0.0 | 3.2 | 0.00 | 0.00 | 0.00 | 50 | 1011.1 |
| 20260508234525 | 16 | 45 | 0.0 | 3.2 | 0.00 | 0.00 | 0.00 | 49 | 1010.9 |
| 20260508233028 | 16 | 207 | 3.2 | 4.8 | 0.00 | 0.00 | 0.00 | 49 | 1011.0 |
| 20260508231510 | 16 | 206 | 0.0 | 3.2 | 0.00 | 0.00 | 0.00 | 50 | 1010.9 |
| 20260508230013 | 16 | 206 | 0.0 | 3.2 | 0.00 | 0.00 | 0.00 | 49 | 1010.6 |
| 20260508224519 | 16 | 203 | 0.0 | 3.2 | 0.00 | 0.00 | 0.00 | 47 | 1010.6 |
| 20260508223040 | 16 | 215 | 1.6 | 4.8 | 0.00 | 0.00 | 0.00 | 47 | 1010.5 |
| 20260508221504 | 17 | 221 | 3.2 | 6.4 | 0.00 | 0.00 | 0.00 | 46 | 1010.7 |
| 20260508220004 | 16 | 209 | 1.6 | 6.4 | 0.00 | 0.00 | 0.00 | 48 | 1010.6 |
| 20260508214503 | 17 | 208 | 1.6 | 4.8 | 0.00 | 0.00 | 0.00 | 46 | 1010.7 |
| 20260508213010 | 17 | 193 | 1.6 | 6.4 | 0.00 | 0.00 | 0.00 | 46 | 1010.7 |
| 20260508211503 | 17 | 196 | 1.6 | 9.7 | 0.00 | 0.00 | 0.00 | 46 | 1010.8 |
| 20260508210004 | 17 | 160 | 1.6 | 9.7 | 0.00 | 0.00 | 0.00 | 44 | 1010.6 |
| 20260508204504 | 17 | 170 | 4.8 | 9.7 | 0.00 | 0.00 | 0.00 | 45 | 1010.6 |
| 20260508203003 | 17 | 166 | 4.8 | 12.9 | 0.00 | 0.00 | 0.00 | 45 | 1010.8 |
| 20260508201506 | 17 | 98 | 3.2 | 16.1 | 0.00 | 0.00 | 0.00 | 42 | 1011.0 |